Zurück zum Katalog

SDA_1676

AktivMilitärPO
NORAD 65986·PAYLOAD·🇺🇸 United States

Gestartet Oct 15, 2025 von Vandenberg Space Force Base

Loading…

Nächste Überflüge (nächste 24 Stunden)

TLE

AktuellSource: Space-Track

Epoche: Sep 14, 2026, 08:12 UTC

1 65986U 25230N   26257.34220264  .00000059  00000-0  47225-4 0  9999
2 65986  81.3011 130.7542 0000866  40.3735 319.7483 13.78091202 46046

Verfolge SDA_1676 in Echtzeit mit AllMySat

Download on the App Store